When you browse on this site, cookies collect data to enhance your experience and personalize the content and advertising you see.
Visit our Privacy Policy to learn more. By continuing to use the site, you agree to this use of cookies and data.
EN

Hourly Weather Carvoeiro

Today, 12 August, Wednesday

Time Temperature Precipitation Wind Pressure Humidity
00:00 +18°C° 0 mm 4 mps 757 mmHg 96%
01:00 +18°C° 0 mm 3 mps 757 mmHg 96%
02:00 +18°C° 0 mm 3 mps 757 mmHg 97%
03:00 +18°C° 0 mm 3 mps 757 mmHg 96%
04:00 +18°C° 0 mm 3 mps 757 mmHg 96%
05:00 +18°C° 0 mm 3 mps 757 mmHg 95%
06:00 +20°C° 0 mm 3 mps 758 mmHg 86%
07:00 +22°C° 0 mm 4 mps 758 mmHg 77%
08:00 +23°C° 0 mm 4 mps 758 mmHg 67%
09:00 +25°C° 0 mm 4 mps 758 mmHg 64%
10:00 +26°C° 0 mm 5 mps 758 mmHg 60%
11:00 +27°C° 0 mm 5 mps 759 mmHg 56%
12:00 +27°C° 0 mm 5 mps 758 mmHg 55%
13:00 +28°C° 0 mm 6 mps 758 mmHg 54%
14:00 +28°C° 0 mm 6 mps 758 mmHg 53%
15:00 +27°C° 0 mm 7 mps 758 mmHg 57%
16:00 +26°C° 0 mm 7 mps 757 mmHg 61%
17:00 +24°C° 0 mm 7 mps 757 mmHg 66%
18:00 +22°C° 0 mm 6 mps 758 mmHg 75%
19:00 +21°C° 0 mm 6 mps 758 mmHg 85%
20:00 +19°C° 0 mm 6 mps 758 mmHg 94%
21:00 +19°C° 0 mm 5 mps 758 mmHg 94%
22:00 +17°C° 0 mm 5 mps 758 mmHg 93%
23:00 +17°C° 0 mm 5 mps 758 mmHg 93%

Tomorrow, 13 August, Thursday

Time Temperature Precipitation Wind Pressure Humidity
00:00 +17°C° 0 mm 5 mps 758 mmHg 94%
01:00 +16°C° 0 mm 5 mps 758 mmHg 95%
02:00 +17°C° 0 mm 4 mps 758 mmHg 96%
03:00 +15°C° 0 mm 4 mps 758 mmHg 96%
04:00 +15°C° 0 mm 4 mps 758 mmHg 96%
05:00 +15°C° 0 mm 4 mps 758 mmHg 96%
06:00 +18°C° 0 mm 4 mps 758 mmHg 85%
07:00 +21°C° 0 mm 4 mps 758 mmHg 74%
08:00 +23°C° 0 mm 4 mps 758 mmHg 63%
09:00 +26°C° 0 mm 4 mps 758 mmHg 55%
10:00 +29°C° 0 mm 4 mps 758 mmHg 46%
11:00 +32°C° 0 mm 5 mps 759 mmHg 37%
12:00 +32°C° 0 mm 6 mps 758 mmHg 37%
13:00 +32°C° 0 mm 6 mps 758 mmHg 37%
14:00 +33°C° 0 mm 7 mps 758 mmHg 37%
15:00 +31°C° 0 mm 8 mps 757 mmHg 41%
16:00 +29°C° 0 mm 8 mps 757 mmHg 45%
17:00 +27°C° 0 mm 8 mps 757 mmHg 50%
18:00 +24°C° 0 mm 8 mps 758 mmHg 57%
19:00 +22°C° 0 mm 7 mps 758 mmHg 65%
20:00 +20°C° 0 mm 7 mps 758 mmHg 72%
21:00 +20°C° 0 mm 7 mps 758 mmHg 74%
22:00 +18°C° 0 mm 7 mps 758 mmHg 75%
23:00 +19°C° 0 mm 6 mps 758 mmHg 76%

Day after tomorrow, 14 August, Friday

Time Temperature Precipitation Wind Pressure Humidity
00:00 +17°C° 0 mm 6 mps 758 mmHg 79%
01:00 +16°C° 0 mm 6 mps 758 mmHg 82%
02:00 +16°C° 0 mm 5 mps 758 mmHg 86%
03:00 +15°C° 0 mm 5 mps 758 mmHg 87%
04:00 +15°C° 0 mm 5 mps 758 mmHg 89%
05:00 +15°C° 0 mm 5 mps 758 mmHg 91%
06:00 +18°C° 0 mm 4 mps 758 mmHg 78%
07:00 +21°C° 0 mm 4 mps 758 mmHg 66%
08:00 +25°C° 0 mm 4 mps 758 mmHg 54%
09:00 +27°C° 0 mm 4 mps 758 mmHg 47%
10:00 +29°C° 0 mm 5 mps 758 mmHg 40%
11:00 +32°C° 0 mm 5 mps 758 mmHg 33%
12:00 +32°C° 0 mm 6 mps 758 mmHg 34%
13:00 +32°C° 0 mm 7 mps 757 mmHg 35%
14:00 +32°C° 0 mm 8 mps 757 mmHg 37%
15:00 +29°C° 0 mm 8 mps 757 mmHg 42%
16:00 +27°C° 0 mm 8 mps 757 mmHg 47%
17:00 +26°C° 0 mm 8 mps 757 mmHg 52%
18:00 +23°C° 0 mm 8 mps 757 mmHg 61%
19:00 +21°C° 0 mm 7 mps 758 mmHg 69%
20:00 +18°C° 0 mm 7 mps 758 mmHg 78%
21:00 +17°C° 0 mm 7 mps 758 mmHg 82%
22:00 +17°C° 0 mm 6 mps 758 mmHg 86%
23:00 +16°C° 0 mm 6 mps 758 mmHg 90%

15 August, Saturday

Time Temperature Precipitation Wind Pressure Humidity
00:00 +16°C° 0 mm 5 mps 758 mmHg 92%
01:00 +16°C° 0 mm 5 mps 758 mmHg 93%
02:00 +15°C° 0 mm 5 mps 758 mmHg 95%
03:00 +15°C° 0 mm 4 mps 758 mmHg 95%
04:00 +15°C° 0 mm 4 mps 758 mmHg 96%
05:00 +15°C° 0 mm 4 mps 758 mmHg 96%
06:00 +18°C° 0 mm 3 mps 758 mmHg 84%
07:00 +20°C° 0 mm 3 mps 758 mmHg 72%
08:00 +24°C° 0 mm 3 mps 759 mmHg 61%
09:00 +25°C° 0 mm 4 mps 759 mmHg 54%
10:00 +27°C° 0 mm 5 mps 759 mmHg 46%
11:00 +28°C° 0 mm 5 mps 759 mmHg 39%
12:00 +28°C° 0 mm 6 mps 758 mmHg 40%
13:00 +28°C° 0 mm 7 mps 758 mmHg 41%
14:00 +28°C° 0 mm 8 mps 758 mmHg 42%
15:00 +27°C° 0 mm 8 mps 757 mmHg 46%
16:00 +26°C° 0 mm 7 mps 757 mmHg 51%
17:00 +23°C° 0 mm 7 mps 757 mmHg 55%
18:00 +22°C° 0 mm 7 mps 757 mmHg 66%
19:00 +20°C° 0 mm 6 mps 758 mmHg 76%
20:00 +17°C° 0 mm 6 mps 758 mmHg 87%
21:00 +17°C° 0 mm 6 mps 758 mmHg 89%
22:00 +16°C° 0 mm 6 mps 758 mmHg 90%
23:00 +16°C° 0 mm 6 mps 758 mmHg 92%

16 August, Sunday

Time Temperature Precipitation Wind Pressure Humidity
00:00 +16°C° 0 mm 5 mps 758 mmHg 93%
01:00 +16°C° 0 mm 5 mps 758 mmHg 93%
02:00 +15°C° 0 mm 5 mps 757 mmHg 94%
03:00 +15°C° 0 mm 4 mps 758 mmHg 95%
04:00 +15°C° 0 mm 4 mps 758 mmHg 95%
05:00 +15°C° 0 mm 4 mps 758 mmHg 96%
06:00 +18°C° 0 mm 4 mps 758 mmHg 83%
07:00 +21°C° 0 mm 4 mps 758 mmHg 71%
08:00 +23°C° 0 mm 4 mps 758 mmHg 58%
09:00 +25°C° 0 mm 5 mps 758 mmHg 52%
10:00 +27°C° 0 mm 5 mps 758 mmHg 46%
11:00 +29°C° 0 mm 6 mps 758 mmHg 40%
12:00 +29°C° 0 mm 6 mps 758 mmHg 41%
13:00 +29°C° 0 mm 7 mps 757 mmHg 42%
14:00 +29°C° 0 mm 8 mps 757 mmHg 43%
15:00 +27°C° 0 mm 8 mps 757 mmHg 49%
16:00 +26°C° 0 mm 8 mps 757 mmHg 55%
17:00 +24°C° 0 mm 8 mps 756 mmHg 60%
18:00 +22°C° 0 mm 7 mps 757 mmHg 68%
19:00 +20°C° 0 mm 7 mps 757 mmHg 76%
20:00 +18°C° 0 mm 7 mps 758 mmHg 84%
21:00 +17°C° 0 mm 7 mps 757 mmHg 87%
22:00 +17°C° 0 mm 6 mps 757 mmHg 90%
23:00 +17°C° 0 mm 6 mps 757 mmHg 93%

17 August, Monday

Time Temperature Precipitation Wind Pressure Humidity
00:00 +16°C° 0 mm 5 mps 757 mmHg 93%
01:00 +16°C° 0 mm 5 mps 757 mmHg 93%
02:00 +16°C° 0 mm 5 mps 757 mmHg 94%
03:00 +17°C° 0 mm 4 mps 757 mmHg 94%
04:00 +17°C° 0 mm 4 mps 757 mmHg 94%
05:00 +17°C° 0 mm 4 mps 757 mmHg 94%
06:00 +19°C° 0 mm 3 mps 757 mmHg 83%
07:00 +22°C° 0 mm 3 mps 757 mmHg 73%
08:00 +25°C° 0 mm 3 mps 757 mmHg 63%
09:00 +27°C° 0 mm 4 mps 757 mmHg 58%
10:00 +28°C° 0 mm 4 mps 757 mmHg 53%
11:00 +30°C° 0 mm 5 mps 757 mmHg 48%
12:00 +30°C° 0 mm 6 mps 757 mmHg 50%
13:00 +29°C° 0 mm 7 mps 757 mmHg 51%
14:00 +29°C° 0 mm 7 mps 756 mmHg 53%
15:00 +28°C° 0 mm 7 mps 756 mmHg 56%
16:00 +27°C° 0 mm 7 mps 756 mmHg 59%
17:00 +24°C° 0 mm 7 mps 756 mmHg 62%
18:00 +22°C° 0 mm 7 mps 757 mmHg 73%
19:00 +20°C° 0 mm 6 mps 757 mmHg 83%
20:00 +17°C° 0 mm 6 mps 757 mmHg 94%
21:00 +17°C° 0 mm 6 mps 757 mmHg 93%
22:00 +17°C° 0 mm 6 mps 757 mmHg 92%
23:00 +17°C° 0 mm 6 mps 757 mmHg 91%
Show more